Weather History for Scappoose, OR

Change the Weather History Date:

Monday, November 25, 2013

  Actual Average Record
Temperature  
Mean Temperature 38 °F -  
Max Temperature 51 °F - 57 °F (1999)
Min Temperature 24 °F - 24 °F (2013)
Degree Days  
Heating Degree Days 27    
Month to date heating degree days 500  
Since 1 July heating degree days 1070  
Cooling Degree Days 0    
Month to date cooling degree days 0  
Year to date cooling degree days 396  
Moisture  
Dew Point 27 °F    
Average Humidity 67    
Maximum Humidity 92    
Minimum Humidity 42    
Precipitation  
Precipitation 0.00 in - 1.07 in (1999)
Month to date precipitation 3.05  
Year to date precipitation 25.56  
Sea Level Pressure  
Sea Level Pressure 30.32 in    
Wind  
Wind Speed 2 mph (WSW)    
Max Wind Speed 7 mph    
Max Gust Speed 9 mph    
Visibility 10 miles    
Events      
T = Trace of Precipitation, MM = Missing Value Source: NWS Daily Summary

Daily Weather History Graph

Daily Weather History Graph

Search for Another Location

Airport:

Trip Planner

Search our weather history database for the weather conditions in past years. The results will help you decide how hot, cold, wet, or windy it might be!

Date:

Astronomy

Nov. 25, 2013 Rise Set
Actual Time 7:25 AM PST 4:31 PM PST
Civil Twilight 6:51 AM PST 5:04 PM PST
Nautical Twilight 6:15 AM PST 5:41 PM PST
Astronomical Twilight 5:39 AM PST 6:17 PM PST
Moon No Moon Rise 12:32 PM PST (11/25)
Length of Visible Light 10h 12m
Length of Day
9h 06m
Waning Gibbous, 50% of the Moon is Illuminated
Nov 25
Waning Gibbous
Dec 2
New
Dec 9
First Quarter
Dec 17
Full
Dec 25
Last Quarter

Hourly Weather History & Observations

Time (PST) Temp. Windchill Dew Point Humidity Pressure Visibility Wind Dir Wind Speed Gust Speed Precip Events Conditions
12:53 AM 28.9 °F - 26.1 °F 89% 30.30 in 10.0 mi Calm Calm - N/A   Clear
1:53 AM 27.0 °F - 24.1 °F 89% 30.31 in 10.0 mi Calm Calm - N/A   Clear
2:53 AM 26.1 °F 21.9 °F 23.0 °F 88% 30.31 in 10.0 mi West 3.5 mph - N/A   Clear
3:53 AM 28.0 °F - 24.1 °F 85% 30.32 in 10.0 mi Calm Calm - N/A   Clear
4:53 AM 26.1 °F 21.9 °F 23.0 °F 88% 30.33 in 10.0 mi West 3.5 mph - N/A   Clear
5:53 AM 26.1 °F - 23.0 °F 88% 30.33 in 10.0 mi Calm Calm - N/A   Clear
6:02 AM 26.1 °F - 23.0 °F 88% 30.33 in 9.0 mi Calm Calm - N/A   Partly Cloudy
6:53 AM 26.1 °F - 23.0 °F 88% 30.34 in 10.0 mi Calm Calm - N/A   Clear
7:53 AM 25.0 °F - 21.9 °F 88% 30.34 in 8.0 mi Calm Calm - N/A   Clear
8:53 AM 30.9 °F - 28.0 °F 89% 30.35 in 10.0 mi Calm Calm - N/A   Clear
9:53 AM 37.9 °F - 30.9 °F 76% 30.35 in 10.0 mi Calm Calm - N/A   Clear
10:53 AM 41.0 °F 39.0 °F 30.0 °F 65% 30.35 in 10.0 mi ESE 3.5 mph - N/A   Clear
11:53 AM 46.0 °F 43.9 °F 28.9 °F 51% 30.33 in 10.0 mi South 4.6 mph - N/A   Clear
12:53 PM 48.9 °F - 28.9 °F 46% 30.32 in 10.0 mi SSE 5.8 mph - N/A   Clear
1:53 PM 50.0 °F - 28.0 °F 43% 30.31 in 10.0 mi ESE 4.6 mph - N/A   Clear
2:53 PM 50.0 °F - 28.0 °F 43% 30.30 in 10.0 mi Calm Calm - N/A   Clear
3:53 PM 46.9 °F - 28.9 °F 50% 30.30 in 10.0 mi Calm Calm - N/A   Clear
4:53 PM 39.9 °F 37.8 °F 32.0 °F 73% 30.30 in 10.0 mi West 3.5 mph - N/A   Clear
5:53 PM 36.0 °F 33.3 °F 30.9 °F 82% 30.30 in 10.0 mi West 3.5 mph - N/A   Clear
6:53 PM 36.0 °F - 30.9 °F 82% 30.31 in 10.0 mi Calm Calm - N/A   Clear
7:53 PM 34.0 °F 31.0 °F 30.9 °F 89% 30.31 in 10.0 mi West 3.5 mph - N/A   Clear
8:53 PM 32.0 °F 28.7 °F 28.9 °F 88% 30.31 in 10.0 mi West 3.5 mph - N/A   Clear
9:53 PM 30.9 °F - 28.0 °F 89% 30.30 in 10.0 mi Calm Calm - N/A   Clear
10:53 PM 30.0 °F 26.5 °F 27.0 °F 88% 30.31 in 10.0 mi West 3.5 mph - N/A   Clear
11:53 PM 30.9 °F - 28.0 °F 89% 30.30 in 7.0 mi Calm Calm - N/A   Clear